TimeEDT,TemperatureF,Dew PointF,Humidity,Sea Level PressureIn,VisibilityMPH,Wind Direction,Wind SpeedMPH,Gust SpeedMPH,PrecipitationIn,Events,Conditions,WindDirDegrees,DateUTC
12:15 AM,50.0,39.2,66,30.30,10.0,Calm,Calm,-,N/A,,Clear,0,2013-05-26 04:15:00
12:35 AM,50.0,37.4,62,30.30,10.0,NE,6.9,-,N/A,,Clear,50,2013-05-26 04:35:00
12:55 AM,50.0,37.4,62,30.30,10.0,East,3.5,-,N/A,,Clear,80,2013-05-26 04:55:00
1:15 AM,50.0,37.4,62,30.30,10.0,Calm,Calm,-,N/A,,Clear,0,2013-05-26 05:15:00
1:35 AM,50.0,37.4,62,30.30,10.0,Calm,Calm,-,N/A,,Clear,0,2013-05-26 05:35:00
1:55 AM,50.0,37.4,62,30.30,10.0,Calm,Calm,-,N/A,,Clear,0,2013-05-26 05:55:00
2:15 AM,48.2,37.4,66,30.29,10.0,Calm,Calm,-,N/A,,Clear,0,2013-05-26 06:15:00
2:35 AM,44.6,37.4,76,30.30,10.0,Calm,Calm,-,N/A,,Clear,0,2013-05-26 06:35:00
2:55 AM,46.4,37.4,71,30.30,10.0,Calm,Calm,-,N/A,,Clear,0,2013-05-26 06:55:00
3:15 AM,46.4,37.4,71,30.29,10.0,Calm,Calm,-,N/A,,Clear,0,2013-05-26 07:15:00
3:35 AM,44.6,37.4,76,30.29,10.0,Calm,Calm,-,N/A,,Clear,0,2013-05-26 07:35:00
3:55 AM,44.6,35.6,71,30.29,10.0,Calm,Calm,-,N/A,,Clear,0,2013-05-26 07:55:00
4:15 AM,44.6,35.6,71,30.29,10.0,East,3.5,-,N/A,,Clear,80,2013-05-26 08:15:00
4:35 AM,46.4,35.6,66,30.29,10.0,East,3.5,-,N/A,,Clear,90,2013-05-26 08:35:00
4:55 AM,46.4,35.6,66,30.29,10.0,East,4.6,-,N/A,,Clear,90,2013-05-26 08:55:00
5:15 AM,44.6,35.6,71,30.30,10.0,East,3.5,-,N/A,,Clear,90,2013-05-26 09:15:00
5:35 AM,42.8,35.6,76,30.30,10.0,Calm,Calm,-,N/A,,Clear,0,2013-05-26 09:35:00
5:55 AM,42.8,35.6,76,30.30,10.0,East,3.5,-,N/A,,Clear,90,2013-05-26 09:55:00
6:15 AM,44.6,35.6,71,30.32,10.0,ENE,4.6,-,N/A,,Clear,60,2013-05-26 10:15:00
6:35 AM,44.6,35.6,71,30.32,10.0,ENE,3.5,-,N/A,,Clear,70,2013-05-26 10:35:00
6:55 AM,42.8,35.6,76,30.31,10.0,ENE,4.6,-,N/A,,Clear,70,2013-05-26 10:55:00
7:15 AM,46.4,37.4,71,30.32,10.0,East,4.6,-,N/A,,Clear,80,2013-05-26 11:15:00
7:35 AM,46.4,39.2,76,30.33,10.0,ENE,5.8,-,N/A,,Clear,70,2013-05-26 11:35:00
7:55 AM,50.0,39.2,66,30.32,10.0,Calm,Calm,-,N/A,,Clear,0,2013-05-26 11:55:00
8:15 AM,50.0,39.2,66,30.32,10.0,East,5.8,-,N/A,,Clear,90,2013-05-26 12:15:00
8:35 AM,51.8,39.2,62,30.33,10.0,East,3.5,-,N/A,,Clear,80,2013-05-26 12:35:00
8:55 AM,53.6,37.4,54,30.34,10.0,East,5.8,-,N/A,,Clear,90,2013-05-26 12:55:00
9:15 AM,55.4,37.4,51,30.34,10.0,East,8.1,-,N/A,,Clear,80,2013-05-26 13:15:00
9:35 AM,57.2,37.4,48,30.34,10.0,East,8.1,-,N/A,,Clear,80,2013-05-26 13:35:00
9:55 AM,59.0,37.4,45,30.34,10.0,East,8.1,-,N/A,,Clear,90,2013-05-26 13:55:00
10:15 AM,59.0,37.4,45,30.33,10.0,East,3.5,-,N/A,,Clear,80,2013-05-26 14:15:00
10:35 AM,60.8,37.4,42,30.34,10.0,ENE,6.9,-,N/A,,Clear,70,2013-05-26 14:35:00
10:55 AM,60.8,37.4,42,30.33,10.0,ESE,5.8,-,N/A,,Clear,110,2013-05-26 14:55:00
11:15 AM,62.6,33.8,34,30.33,10.0,East,4.6,-,N/A,,Clear,80,2013-05-26 15:15:00
11:35 AM,62.6,33.8,34,30.32,10.0,South,3.5,-,N/A,,Clear,190,2013-05-26 15:35:00
11:55 AM,64.4,33.8,32,30.32,10.0,East,6.9,-,N/A,,Clear,90,2013-05-26 15:55:00
12:15 PM,64.4,33.8,32,30.33,10.0,East,5.8,-,N/A,,Clear,80,2013-05-26 16:15:00
12:35 PM,64.4,33.8,32,30.32,10.0,ENE,4.6,-,N/A,,Clear,70,2013-05-26 16:35:00
12:55 PM,64.4,33.8,32,30.32,10.0,Calm,Calm,-,N/A,,Clear,0,2013-05-26 16:55:00
1:15 PM,66.2,33.8,30,30.32,10.0,ENE,4.6,-,N/A,,Clear,60,2013-05-26 17:15:00
1:35 PM,66.2,32.0,28,30.31,10.0,Calm,Calm,-,N/A,,Clear,0,2013-05-26 17:35:00
1:55 PM,66.2,33.8,30,30.30,10.0,East,3.5,-,N/A,,Clear,100,2013-05-26 17:55:00
2:15 PM,69.8,33.8,27,30.29,10.0,Calm,Calm,-,N/A,,Clear,0,2013-05-26 18:15:00
2:35 PM,69.8,35.6,28,30.28,10.0,SSW,4.6,-,N/A,,Clear,210,2013-05-26 18:35:00
2:55 PM,68.0,33.8,28,30.28,10.0,Calm,Calm,-,N/A,,Clear,0,2013-05-26 18:55:00
3:15 PM,69.8,35.6,28,30.28,10.0,East,5.8,-,N/A,,Clear,100,2013-05-26 19:15:00
3:35 PM,69.8,33.8,27,30.28,10.0,ENE,3.5,-,N/A,,Clear,70,2013-05-26 19:35:00
3:55 PM,68.0,33.8,28,30.28,10.0,NE,5.8,-,N/A,,Clear,40,2013-05-26 19:55:00
4:15 PM,69.8,35.6,28,30.26,10.0,East,6.9,-,N/A,,Clear,90,2013-05-26 20:15:00
4:35 PM,69.8,33.8,27,30.26,10.0,East,3.5,-,N/A,,Clear,80,2013-05-26 20:35:00
4:55 PM,69.8,33.8,27,30.26,10.0,East,3.5,-,N/A,,Clear,100,2013-05-26 20:55:00
5:15 PM,68.0,33.8,28,30.25,10.0,ESE,4.6,-,N/A,,Clear,120,2013-05-26 21:15:00
5:35 PM,68.0,33.8,28,30.25,10.0,ENE,8.1,-,N/A,,Clear,70,2013-05-26 21:35:00
5:55 PM,68.0,33.8,28,30.24,10.0,ESE,6.9,-,N/A,,Clear,120,2013-05-26 21:55:00
6:15 PM,69.8,32.0,25,30.24,10.0,ENE,5.8,-,N/A,,Clear,70,2013-05-26 22:15:00
6:35 PM,69.8,32.0,25,30.23,10.0,East,5.8,-,N/A,,Clear,90,2013-05-26 22:35:00
6:55 PM,68.0,32.0,26,30.23,10.0,ESE,4.6,-,N/A,,Clear,120,2013-05-26 22:55:00
7:15 PM,69.8,32.0,25,30.22,10.0,NE,6.9,-,N/A,,Clear,50,2013-05-26 23:15:00
7:35 PM,68.0,32.0,26,30.21,10.0,East,8.1,-,N/A,,Clear,80,2013-05-26 23:35:00
7:55 PM,66.2,32.0,28,30.21,10.0,East,4.6,-,N/A,,Clear,100,2013-05-26 23:55:00
8:15 PM,64.4,32.0,30,30.21,10.0,East,4.6,-,N/A,,Clear,80,2013-05-27 00:15:00
8:35 PM,62.6,33.8,34,30.20,10.0,East,4.6,-,N/A,,Clear,80,2013-05-27 00:35:00
8:55 PM,62.6,32.0,32,30.20,10.0,Calm,Calm,-,N/A,,Clear,0,2013-05-27 00:55:00
9:15 PM,62.6,33.8,34,30.21,10.0,Calm,Calm,-,N/A,,Clear,0,2013-05-27 01:15:00
9:35 PM,62.6,33.8,34,30.21,10.0,Calm,Calm,-,N/A,,Clear,0,2013-05-27 01:35:00
9:55 PM,60.8,35.6,39,30.21,10.0,East,3.5,-,N/A,,Clear,80,2013-05-27 01:55:00
10:15 PM,60.8,33.8,36,30.22,10.0,Calm,Calm,-,N/A,,Clear,0,2013-05-27 02:15:00
10:35 PM,60.8,33.8,36,30.23,10.0,Calm,Calm,-,N/A,,Clear,0,2013-05-27 02:35:00
10:55 PM,60.8,33.8,36,30.23,10.0,East,3.5,-,N/A,,Clear,100,2013-05-27 02:55:00
11:15 PM,60.8,32.0,34,30.23,10.0,East,4.6,-,N/A,,Clear,100,2013-05-27 03:15:00
11:35 PM,60.8,32.0,34,30.23,10.0,East,4.6,-,N/A,,Clear,100,2013-05-27 03:35:00
11:55 PM,60.8,32.0,34,30.23,10.0,East,5.8,-,N/A,,Clear,100,2013-05-27 03:55:00